This is the latest recevied weather packets stored in our database for station/object 9A3XK-13. If no packets are shown the sender has not sent any weather packets the latest 10 day(s).
| Time | Temp. | Humidity | Pressure | Rain* | Wind** | Luminosity | Snow |
|---|---|---|---|---|---|---|---|
| 1777616416 | 8.89° C | 60% | 1026.7 hPa | 0 mm | - | 379 W/m² | - |
| 1777616116 | 8.89° C | 62% | 1026.7 hPa | 0 mm | - | 364 W/m² | - |
| 1777615816 | 8.33° C | 63% | 1026.7 hPa | 0 mm | - | 349 W/m² | - |
| 1777615516 | 8.33° C | 64% | 1026.6 hPa | 0 mm | - | 333 W/m² | - |
| 1777615216 | 7.78° C | 64% | 1026.6 hPa | 0 mm | - | 317 W/m² | - |
| 1777614916 | 7.78° C | 67% | 1026.5 hPa | 0 mm | - | 303 W/m² | - |
| 1777614616 | 7.22° C | 68% | 1026.5 hPa | 0 mm | - | 279 W/m² | - |
| 1777614316 | 6.67° C | 67% | 1026.5 hPa | 0 mm | - | 93 W/m² | - |
| 1777613716 | 6.11° C | 68% | 1026.2 hPa | 0 mm | - | 39 W/m² | - |
| 1777613416 | 6.11° C | 70% | 1026.2 hPa | 0 mm | - | 72 W/m² | - |
| 1777613116 | 5.56° C | 70% | 1026.2 hPa | 0 mm | - | 69 W/m² | - |
| 1777612817 | 5.56° C | 70% | 1026.2 hPa | 0 mm | - | 35 W/m² | - |
| 1777612516 | 5° C | 71% | 1026.2 hPa | 0 mm | - | 34 W/m² | - |
| 1777612216 | 5° C | 72% | 1026.2 hPa | 0 mm | - | 33 W/m² | - |
| 1777611916 | 5° C | 73% | 1026.1 hPa | 0 mm | - | 32 W/m² | - |
| 1777611615 | 4.44° C | 73% | 1026.1 hPa | 0 mm | - | 30 W/m² | - |
| 1777611316 | 4.44° C | 73% | 1026.1 hPa | 0 mm | - | 29 W/m² | - |
| 1777611016 | 3.89° C | 74% | 1026 hPa | 0 mm | - | 28 W/m² | - |
| 1777610717 | 3.89° C | 74% | 1026 hPa | 0 mm | - | 26 W/m² | - |
| 1777610416 | 3.89° C | 74% | 1025.9 hPa | 0 mm | - | 26 W/m² | - |
| 1777610116 | 3.33° C | 75% | 1025.9 hPa | 0 mm | - | 25 W/m² | - |
| 1777609816 | 3.33° C | 75% | 1025.8 hPa | 0 mm | - | 23 W/m² | - |
| 1777609516 | 3.33° C | 75% | 1025.8 hPa | 0 mm | - | 21 W/m² | - |
| 1777609216 | 3.33° C | 75% | 1025.8 hPa | 0 mm | - | 20 W/m² | - |
| 1777608916 | 2.78° C | 75% | 1025.8 hPa | 0 mm | - | 19 W/m² | - |
* Rain latest hour (hover to see other rain measurements)
** Current wind speed in m/s (hover to see current wind gust speed)